THORAD AGENA D DEB, 4943

Orbit data source: Space-Track

THORAD AGENA D DEB, 4943 is space debris in SSO originally from a launch on Wed, 08 Apr 1970 UTC launched from the Air Force Western Test Range (AFWTR). Debris objects in space refer to the collection of defunct objects orbiting the Earth. Examples of debris include non-operational satellites, rocket bodies, and fragments generated from explosions, collisions, or faulty payload assembly.

Loading next visibility...
Identifier
4943, 1970-025GD
Orbit
SSO
Country
Flag of USUS
Related business
Manufacturer
Unknown
Mission
Spacecraft
Bus & Motor
Unknown
Mass
Unknown
Launch date (UTC)
1970-04-08 (56 years ago)
Launch vehicle
Unknown
Launch site
Air Force Western Test Range (AFWTR)
Object type
Payload
Rocket body
Debris
Shape & HBR
Unknown shape, 0.1 m
Radar Cross Section
Medium (>0.1 m² and <1 m²)

Expand to show TLE details & history
Last TLE update: 1 week ago

TLE from 1 week ago
0 THORAD AGENA D DEB
1 04943U 70025GD  26152.41611031  .00000154  00000-0  48612-3 0  9991
2 04943  99.6426 118.6365 0226146 210.6116 318.4189 13.10648755679653
Epoch: 2026-06-01T09:59Z
TLE epoch observation values (Epoch: 2026-06-01T09:59:11.930Z)
Latitude
12.50669°
Longitude
-98.91824°
Altitude
1,095.828 km
Speed
7.366 km/s
True Right ascension
20h 03m 08s
True Declination
12° 26' 15"
Sunlit
Object was in daylight at epoch
Visualization orbit readout
Latitude
Unknown
Longitude
Unknown
Altitude
Unknown
Speed
Unknown
Apparent Right ascension
Unknown
Apparent Declination
Unknown
Sunlit
N/A
Visualization observer readout
Local Sidereal Time
20:17:44
Azimuth
Unknown
Elevation
Unknown
Doppler factor
Unknown
Orbital elements
Apogee altitude
1,389.783 km
Perigee altitude
1,046.216 km
Semi-major axis
7,596.137 km
Eccentricity
0.02261
Inclination
99.6426°
RAAN
118.6365°
Arg. of periapsis
210.6116°
True anomaly
316.66217°
Mean anomaly
318.4189°
Eccentric anomaly
317.54426°
Mean motion
3.27834 °/min
Orbital period
109.81 mins
BSTAR
0.00048612
Loading maneuver chart data...
Computing Atmospheric mass density...
Loading historical data...
Loading historical data...
Loading historical data...
Loading historical data...
Loading historical data...
Loading historical data...
Loading historical data...

Documentation

Showing up to 5 results
|